Time,TemperatureF,DewpointF,PressureIn,WindDirection,WindDirectionDegrees,WindSpeedMPH,WindSpeedGustMPH,Humidity,HourlyPrecipIn,Conditions,Clouds,dailyrainin,SoftwareType,DateUTC
2013-06-18 00:01:00,73.1,59.8,29.90,West,281,0.0,0.0,63,0.00,CLR,SKC,0.00,WeatherDisplay:10.37,2013-06-18 05:01:00,
2013-06-18 00:06:00,73.0,60.1,29.91,North,349,0.0,0.0,64,0.00,CLR,SKC,0.00,WeatherDisplay:10.37,2013-06-18 05:06:00,
2013-06-18 00:11:00,72.6,59.7,29.91,North,349,0.0,0.0,64,0.00,CLR,SKC,0.00,WeatherDisplay:10.37,2013-06-18 05:11:00,
2013-06-18 00:16:00,72.3,59.9,29.91,NNW,348,0.0,0.0,65,0.00,CLR,SKC,0.00,WeatherDisplay:10.37,2013-06-18 05:16:00,
2013-06-18 00:21:00,72.0,59.2,29.91,NE,46,0.0,0.0,64,0.00,CLR,SKC,0.00,WeatherDisplay:10.37,2013-06-18 05:21:00,
2013-06-18 00:26:00,72.0,59.2,29.90,NE,47,0.0,0.0,64,0.00,CLR,SKC,0.00,WeatherDisplay:10.37,2013-06-18 05:26:00,
2013-06-18 00:31:00,72.0,59.2,29.91,NE,50,0.0,0.0,64,0.00,CLR,SKC,0.00,WeatherDisplay:10.37,2013-06-18 05:31:00,
2013-06-18 00:36:00,71.8,59.4,29.91,NE,53,0.0,0.0,65,0.00,CLR,SKC,0.00,WeatherDisplay:10.37,2013-06-18 05:36:00,
2013-06-18 00:41:00,71.4,59.0,29.90,NE,54,0.0,0.0,65,0.00,CLR,SKC,0.00,WeatherDisplay:10.37,2013-06-18 05:41:00,
2013-06-18 00:46:00,71.0,59.1,29.91,NE,54,0.0,0.0,66,0.00,CLR,SKC,0.00,WeatherDisplay:10.37,2013-06-18 05:46:00,
2013-06-18 00:51:00,70.7,58.8,29.91,NE,55,0.0,0.0,66,0.00,CLR,SKC,0.00,WeatherDisplay:10.37,2013-06-18 05:51:00,
2013-06-18 00:56:00,70.4,58.9,29.91,NE,47,0.0,0.0,67,0.00,CLR,SKC,0.00,WeatherDisplay:10.37,2013-06-18 05:56:00,
2013-06-18 01:01:00,70.2,58.3,29.91,NE,47,0.0,0.0,66,0.00,CLR,SKC,0.00,WeatherDisplay:10.37,2013-06-18 06:01:00,
2013-06-18 01:06:00,70.2,58.7,29.91,East,82,0.0,0.0,67,0.00,CLR,SKC,0.00,WeatherDisplay:10.37,2013-06-18 06:06:00,
2013-06-18 01:12:00,70.4,58.1,29.91,NE,53,0.0,0.0,65,0.00,CLR,SKC,0.00,WeatherDisplay:10.37,2013-06-18 06:12:00,
2013-06-18 01:17:00,70.7,57.9,29.92,ENE,59,4.2,4.2,64,0.00,CLR,SKC,0.00,WeatherDisplay:10.37,2013-06-18 06:17:00,
2013-06-18 01:22:00,71.0,58.2,29.92,NNE,32,0.0,0.0,64,0.00,CLR,SKC,0.00,WeatherDisplay:10.37,2013-06-18 06:22:00,
2013-06-18 01:27:00,70.8,58.4,29.91,ENE,63,0.0,0.0,65,0.00,CLR,SKC,0.00,WeatherDisplay:10.37,2013-06-18 06:27:00,
2013-06-18 01:32:00,70.5,57.7,29.91,ENE,72,0.0,0.0,64,0.00,CLR,SKC,0.00,WeatherDisplay:10.37,2013-06-18 06:32:00,
2013-06-18 01:37:00,70.3,58.0,29.91,ENE,70,0.0,0.0,65,0.00,CLR,SKC,0.00,WeatherDisplay:10.37,2013-06-18 06:37:00,
2013-06-18 01:42:00,70.2,58.3,29.91,ENE,70,0.0,0.0,66,0.00,CLR,SKC,0.00,WeatherDisplay:10.37,2013-06-18 06:42:00,
2013-06-18 01:47:00,69.9,58.0,29.91,ENE,70,0.0,0.0,66,0.00,CLR,SKC,0.00,WeatherDisplay:10.37,2013-06-18 06:47:00,
2013-06-18 01:52:00,69.5,58.1,29.91,ENE,70,0.0,0.0,67,0.00,CLR,SKC,0.00,WeatherDisplay:10.37,2013-06-18 06:52:00,
2013-06-18 01:57:00,69.3,57.9,29.91,ENE,70,0.0,0.0,67,0.00,CLR,SKC,0.00,WeatherDisplay:10.37,2013-06-18 06:57:00,
2013-06-18 02:02:00,68.9,58.3,29.91,ENE,70,0.0,0.0,69,0.00,CLR,SKC,0.00,WeatherDisplay:10.37,2013-06-18 07:02:00,
2013-06-18 02:07:00,68.2,58.0,29.91,ENE,70,0.0,0.0,70,0.00,CLR,SKC,0.00,WeatherDisplay:10.37,2013-06-18 07:07:00,
2013-06-18 02:12:00,67.8,58.4,29.91,ENE,70,0.0,0.0,72,0.00,CLR,SKC,0.00,WeatherDisplay:10.37,2013-06-18 07:12:00,
2013-06-18 02:17:00,67.3,58.3,29.92,ENE,70,0.0,0.0,73,0.00,CLR,SKC,0.00,WeatherDisplay:10.37,2013-06-18 07:17:00,
2013-06-18 02:22:00,66.8,58.2,29.92,ENE,70,0.0,0.0,74,0.00,CLR,SKC,0.00,WeatherDisplay:10.37,2013-06-18 07:22:00,
2013-06-18 02:27:00,66.9,58.3,29.92,NE,53,0.0,0.0,74,0.00,CLR,SKC,0.00,WeatherDisplay:10.37,2013-06-18 07:27:00,
2013-06-18 02:32:00,66.8,58.2,29.92,NE,53,0.0,0.0,74,0.00,CLR,SKC,0.00,WeatherDisplay:10.37,2013-06-18 07:32:00,
2013-06-18 02:37:00,66.4,57.9,29.92,NE,53,0.0,0.0,74,0.00,CLR,SKC,0.00,WeatherDisplay:10.37,2013-06-18 07:37:00,
2013-06-18 02:42:00,66.0,58.2,29.92,NE,53,0.0,0.0,76,0.00,CLR,SKC,0.00,WeatherDisplay:10.37,2013-06-18 07:42:00,
2013-06-18 02:47:00,65.5,58.1,29.92,NE,53,0.0,0.0,77,0.00,CLR,SKC,0.00,WeatherDisplay:10.37,2013-06-18 07:47:00,
2013-06-18 02:52:00,65.5,57.7,29.92,NE,53,0.0,0.0,76,0.00,CLR,SKC,0.00,WeatherDisplay:10.37,2013-06-18 07:52:00,
2013-06-18 02:57:00,65.4,57.6,29.92,NE,53,0.0,0.0,76,0.00,CLR,SKC,0.00,WeatherDisplay:10.37,2013-06-18 07:57:00,
2013-06-18 03:02:00,65.3,57.9,29.92,NE,53,0.0,0.0,77,0.00,CLR,SKC,0.00,WeatherDisplay:10.37,2013-06-18 08:02:00,
2013-06-18 03:07:00,65.4,58.0,29.92,South,179,0.0,0.0,77,0.00,CLR,SKC,0.00,WeatherDisplay:10.37,2013-06-18 08:07:00,
2013-06-18 03:12:00,65.6,58.2,29.93,SSE,165,1.2,0.0,77,0.00,CLR,SKC,0.00,WeatherDisplay:10.37,2013-06-18 08:12:00,
2013-06-18 03:17:00,65.8,58.4,29.93,SSE,159,0.0,0.0,77,0.00,CLR,SKC,0.00,WeatherDisplay:10.37,2013-06-18 08:17:00,
2013-06-18 03:22:00,65.7,58.7,29.93,SSE,162,0.0,0.0,78,0.00,CLR,SKC,0.00,WeatherDisplay:10.37,2013-06-18 08:22:00,
2013-06-18 03:27:00,65.7,59.0,29.93,SSE,153,0.0,0.0,79,0.00,CLR,SKC,0.00,WeatherDisplay:10.37,2013-06-18 08:27:00,
2013-06-18 03:32:00,65.8,59.1,29.92,SSE,148,0.0,0.0,79,0.00,CLR,SKC,0.00,WeatherDisplay:10.37,2013-06-18 08:32:00,
2013-06-18 03:37:00,65.8,59.1,29.92,SSE,148,0.0,0.0,79,0.00,CLR,SKC,0.00,WeatherDisplay:10.37,2013-06-18 08:37:00,
2013-06-18 03:42:00,65.7,59.4,29.92,SSE,148,0.0,0.0,80,0.00,CLR,SKC,0.00,WeatherDisplay:10.37,2013-06-18 08:42:00,
2013-06-18 03:47:00,65.6,58.6,29.92,SSE,148,0.0,0.0,78,0.00,CLR,SKC,0.00,WeatherDisplay:10.37,2013-06-18 08:47:00,
2013-06-18 03:52:00,65.6,58.6,29.93,SSE,148,0.0,0.0,78,0.00,CLR,SKC,0.00,WeatherDisplay:10.37,2013-06-18 08:52:00,
2013-06-18 03:57:00,65.7,58.7,29.93,SSE,148,0.0,0.0,78,0.00,CLR,SKC,0.00,WeatherDisplay:10.37,2013-06-18 08:57:00,
2013-06-18 04:02:00,65.5,58.5,29.93,SSE,148,0.0,0.0,78,0.00,CLR,SKC,0.00,WeatherDisplay:10.37,2013-06-18 09:02:00,
2013-06-18 04:07:00,65.3,58.6,29.93,SSE,148,0.0,0.0,79,0.00,CLR,SKC,0.00,WeatherDisplay:10.37,2013-06-18 09:07:00,
2013-06-18 04:12:00,65.0,58.7,29.93,SSE,148,0.0,0.0,80,0.00,CLR,SKC,0.00,WeatherDisplay:10.37,2013-06-18 09:12:00,
2013-06-18 04:17:00,65.3,59.0,29.93,SSE,148,0.0,0.0,80,0.00,CLR,SKC,0.00,WeatherDisplay:10.37,2013-06-18 09:17:00,
2013-06-18 04:22:00,65.6,58.9,29.93,SSE,148,0.0,0.0,79,0.00,CLR,SKC,0.00,WeatherDisplay:10.37,2013-06-18 09:22:00,
2013-06-18 04:27:00,65.7,59.4,29.93,SSE,148,0.0,0.0,80,0.00,CLR,SKC,0.00,WeatherDisplay:10.37,2013-06-18 09:27:00,
2013-06-18 04:32:00,65.7,59.0,29.93,SSE,148,0.0,0.0,79,0.00,CLR,SKC,0.00,WeatherDisplay:10.37,2013-06-18 09:32:00,
2013-06-18 04:37:00,65.8,59.5,29.93,SSE,148,0.0,0.0,80,0.00,CLR,SKC,0.00,WeatherDisplay:10.37,2013-06-18 09:37:00,
2013-06-18 04:42:00,65.7,59.4,29.93,SSE,148,0.0,0.0,80,0.00,CLR,SKC,0.00,WeatherDisplay:10.37,2013-06-18 09:42:00,
2013-06-18 04:47:00,65.9,59.9,29.93,SSE,148,0.0,0.0,81,0.00,CLR,SKC,0.00,WeatherDisplay:10.37,2013-06-18 09:47:00,
2013-06-18 04:52:00,66.2,59.5,29.93,SSE,148,0.0,0.0,79,0.00,CLR,SKC,0.00,WeatherDisplay:10.37,2013-06-18 09:52:00,
2013-06-18 04:57:00,66.4,59.3,29.94,SSE,148,0.0,0.0,78,0.00,CLR,SKC,0.00,WeatherDisplay:10.37,2013-06-18 09:57:00,
2013-06-18 05:02:00,66.3,59.9,29.94,West,261,0.0,0.0,80,0.00,CLR,SKC,0.00,WeatherDisplay:10.37,2013-06-18 10:02:00,
2013-06-18 05:07:00,66.2,59.1,29.93,East,101,0.0,0.0,78,0.00,CLR,SKC,0.00,WeatherDisplay:10.37,2013-06-18 10:07:00,
2013-06-18 05:12:00,66.8,60.1,29.93,SE,124,0.0,0.0,79,0.00,CLR,SKC,0.00,WeatherDisplay:10.37,2013-06-18 10:12:00,
2013-06-18 05:17:00,66.6,59.5,29.93,NW,314,3.5,3.5,78,0.00,CLR,SKC,0.00,WeatherDisplay:10.37,2013-06-18 10:17:00,
2013-06-18 05:22:00,66.6,59.2,29.92,ENE,60,0.0,0.0,77,0.00,CLR,SKC,0.00,WeatherDisplay:10.37,2013-06-18 10:22:00,
2013-06-18 05:27:00,66.4,59.7,29.93,North,359,0.0,0.0,79,0.00,CLR,SKC,0.00,WeatherDisplay:10.37,2013-06-18 10:27:00,
2013-06-18 05:32:00,65.8,59.5,29.93,NE,44,1.2,0.0,80,0.00,CLR,SKC,0.00,WeatherDisplay:10.37,2013-06-18 10:32:00,
2013-06-18 05:37:00,65.4,59.4,29.93,NE,44,0.0,0.0,81,0.00,CLR,SKC,0.00,WeatherDisplay:10.37,2013-06-18 10:37:00,
2013-06-18 05:42:00,65.2,59.2,29.93,NE,44,0.0,0.0,81,0.00,CLR,SKC,0.00,WeatherDisplay:10.37,2013-06-18 10:42:00,
2013-06-18 05:47:00,65.1,59.1,29.93,NE,44,0.0,0.0,81,0.00,CLR,SKC,0.00,WeatherDisplay:10.37,2013-06-18 10:47:00,
2013-06-18 05:52:00,65.0,59.0,29.93,NE,44,0.0,0.0,81,0.00,CLR,SKC,0.00,WeatherDisplay:10.37,2013-06-18 10:52:00,
2013-06-18 05:57:00,65.1,59.1,29.93,NE,56,2.3,2.3,81,0.00,CLR,SKC,0.00,WeatherDisplay:10.37,2013-06-18 10:57:00,
2013-06-18 06:02:00,65.2,59.2,29.93,NE,49,0.0,0.0,81,0.00,CLR,SKC,0.00,WeatherDisplay:10.37,2013-06-18 11:02:00,
2013-06-18 06:07:00,65.0,59.0,29.93,NNE,33,0.0,0.0,81,0.00,CLR,SKC,0.00,WeatherDisplay:10.37,2013-06-18 11:07:00,
2013-06-18 06:12:00,64.6,59.0,29.93,NNE,33,0.0,0.0,82,0.00,CLR,SKC,0.00,WeatherDisplay:10.37,2013-06-18 11:12:00,
2013-06-18 06:17:00,64.3,59.0,29.93,NNE,33,0.0,0.0,83,0.00,CLR,SKC,0.00,WeatherDisplay:10.37,2013-06-18 11:17:00,
2013-06-18 06:22:00,64.2,58.9,29.93,NNE,33,0.0,0.0,83,0.00,CLR,SKC,0.00,WeatherDisplay:10.37,2013-06-18 11:22:00,
2013-06-18 06:27:00,64.0,59.1,29.93,NNE,33,0.0,0.0,84,0.00,CLR,SKC,0.00,WeatherDisplay:10.37,2013-06-18 11:27:00,
2013-06-18 06:32:00,64.4,59.1,29.93,NNE,33,0.0,0.0,83,0.00,CLR,SKC,0.00,WeatherDisplay:10.37,2013-06-18 11:32:00,
2013-06-18 06:37:00,64.9,58.9,29.93,NNE,33,0.0,0.0,81,0.00,CLR,SKC,0.00,WeatherDisplay:10.37,2013-06-18 11:37:00,
2013-06-18 06:42:00,65.6,59.3,29.93,NNE,33,0.0,0.0,80,0.00,CLR,SKC,0.00,WeatherDisplay:10.37,2013-06-18 11:42:00,
2013-06-18 06:47:00,66.4,59.3,29.94,NNE,33,0.0,0.0,78,0.00,CLR,SKC,0.00,WeatherDisplay:10.37,2013-06-18 11:47:00,
2013-06-18 06:52:00,67.0,60.3,29.94,NNE,33,0.0,0.0,79,0.00,CLR,SKC,0.00,WeatherDisplay:10.37,2013-06-18 11:52:00,
2013-06-18 06:57:00,67.2,59.4,29.94,NNE,33,0.0,0.0,76,0.00,CLR,SKC,0.00,WeatherDisplay:10.37,2013-06-18 11:57:00,
2013-06-18 07:02:00,67.2,59.7,29.94,NNE,33,0.0,0.0,77,0.00,CLR,SKC,0.00,WeatherDisplay:10.37,2013-06-18 12:02:00,
2013-06-18 07:07:00,67.2,60.1,29.95,NNE,33,0.0,0.0,78,0.00,CLR,SKC,0.00,WeatherDisplay:10.37,2013-06-18 12:07:00,
2013-06-18 07:13:00,67.1,59.6,29.95,NNW,345,0.0,0.0,77,0.00,CLR,SKC,0.00,WeatherDisplay:10.37,2013-06-18 12:13:00,
2013-06-18 07:18:00,66.8,60.1,29.95,NNW,342,0.0,0.0,79,0.00,CLR,SKC,0.00,WeatherDisplay:10.37,2013-06-18 12:18:00,
2013-06-18 07:23:00,66.8,60.1,29.95,NNW,332,0.0,0.0,79,0.00,CLR,SKC,0.00,WeatherDisplay:10.37,2013-06-18 12:23:00,
2013-06-18 07:28:00,66.9,60.5,29.95,NW,311,0.0,0.0,80,0.00,CLR,SKC,0.00,WeatherDisplay:10.37,2013-06-18 12:28:00,
2013-06-18 07:33:00,67.1,60.4,29.96,NW,311,0.0,0.0,79,0.00,CLR,SKC,0.00,WeatherDisplay:10.37,2013-06-18 12:33:00,
2013-06-18 07:38:00,67.2,60.8,29.96,NW,311,0.0,0.0,80,0.00,CLR,SKC,0.00,WeatherDisplay:10.37,2013-06-18 12:38:00,
2013-06-18 07:43:00,67.3,61.3,29.97,NW,311,0.0,0.0,81,0.00,CLR,SKC,0.00,WeatherDisplay:10.37,2013-06-18 12:43:00,
2013-06-18 07:48:00,67.4,61.0,29.97,NW,311,0.0,0.0,80,0.00,CLR,SKC,0.00,WeatherDisplay:10.37,2013-06-18 12:48:00,
2013-06-18 07:53:00,67.7,61.3,29.97,NW,311,0.0,0.0,80,0.00,CLR,SKC,0.00,WeatherDisplay:10.37,2013-06-18 12:53:00,
2013-06-18 07:58:00,68.4,62.0,29.96,NW,311,0.0,0.0,80,0.00,CLR,SKC,0.00,WeatherDisplay:10.37,2013-06-18 12:58:00,
2013-06-18 08:03:00,69.9,62.4,29.97,NE,46,0.0,0.0,77,0.00,CLR,SKC,0.00,WeatherDisplay:10.37,2013-06-18 13:03:00,
2013-06-18 08:08:00,71.2,61.7,29.97,NE,48,0.0,0.0,72,0.00,CLR,SKC,0.00,WeatherDisplay:10.37,2013-06-18 13:08:00,
2013-06-18 08:13:00,72.4,61.7,29.96,ENE,58,0.0,0.0,69,0.00,CLR,SKC,0.00,WeatherDisplay:10.37,2013-06-18 13:13:00,
2013-06-18 08:18:00,72.7,60.3,29.96,NNW,336,5.8,5.8,65,0.00,CLR,SKC,0.00,WeatherDisplay:10.37,2013-06-18 13:18:00,
2013-06-18 08:23:00,72.8,60.3,29.96,ENE,58,1.2,1.2,65,0.00,CLR,SKC,0.00,WeatherDisplay:10.37,2013-06-18 13:23:00,
2013-06-18 08:28:00,72.4,59.5,29.97,NE,55,4.2,4.2,64,0.00,CLR,SKC,0.00,WeatherDisplay:10.37,2013-06-18 13:28:00,
2013-06-18 08:33:00,72.3,59.0,29.97,NE,47,8.1,8.1,63,0.00,CLR,SKC,0.00,WeatherDisplay:10.37,2013-06-18 13:33:00,
2013-06-18 08:38:00,72.5,58.3,29.96,NE,53,9.5,9.5,61,0.00,CLR,SKC,0.00,WeatherDisplay:10.37,2013-06-18 13:38:00,
2013-06-18 08:43:00,72.6,58.8,29.96,NE,39,9.2,9.2,62,0.00,CLR,SKC,0.00,WeatherDisplay:10.37,2013-06-18 13:43:00,
2013-06-18 08:48:00,72.9,59.1,29.97,ENE,59,7.4,7.4,62,0.00,CLR,SKC,0.00,WeatherDisplay:10.37,2013-06-18 13:48:00,
2013-06-18 08:53:00,73.4,60.0,29.97,NNE,13,4.6,4.6,63,0.00,CLR,SKC,0.00,WeatherDisplay:10.37,2013-06-18 13:53:00,
2013-06-18 08:58:00,73.7,59.9,29.97,NNE,13,6.9,6.9,62,0.00,CLR,SKC,0.00,WeatherDisplay:10.37,2013-06-18 13:58:00,
2013-06-18 09:03:00,73.8,59.5,29.98,ENE,58,10.6,10.6,61,0.00,CLR,SKC,0.00,WeatherDisplay:10.37,2013-06-18 14:03:00,
2013-06-18 09:08:00,74.0,60.2,29.97,NE,56,6.9,6.9,62,0.00,CLR,SKC,0.00,WeatherDisplay:10.37,2013-06-18 14:08:00,
2013-06-18 09:13:00,73.6,58.4,29.97,NE,56,12.7,12.7,59,0.00,CLR,SKC,0.00,WeatherDisplay:10.37,2013-06-18 14:13:00,
2013-06-18 09:18:00,73.7,58.9,29.97,NE,43,13.8,13.8,60,0.00,CLR,SKC,0.00,WeatherDisplay:10.37,2013-06-18 14:18:00,
2013-06-18 09:23:00,73.8,59.5,29.98,ENE,63,11.7,11.7,61,0.00,CLR,SKC,0.00,WeatherDisplay:10.37,2013-06-18 14:23:00,
2013-06-18 09:28:00,74.0,60.2,29.98,ENE,63,10.6,10.6,62,0.00,CLR,SKC,0.00,WeatherDisplay:10.37,2013-06-18 14:28:00,
2013-06-18 09:33:00,74.1,60.2,29.97,East,79,7.4,7.4,62,0.00,CLR,SKC,0.00,WeatherDisplay:10.37,2013-06-18 14:33:00,
2013-06-18 09:38:00,74.4,59.1,29.98,NE,52,10.6,10.6,59,0.00,CLR,SKC,0.00,WeatherDisplay:10.37,2013-06-18 14:38:00,
2013-06-18 09:43:00,74.7,59.9,29.98,NE,40,5.8,5.8,60,0.00,CLR,SKC,0.00,WeatherDisplay:10.37,2013-06-18 14:43:00,
2013-06-18 09:48:00,74.7,58.9,29.98,ENE,57,13.8,13.8,58,0.00,CLR,SKC,0.00,WeatherDisplay:10.37,2013-06-18 14:48:00,
2013-06-18 09:53:00,74.9,59.6,29.98,ENE,58,11.5,11.5,59,0.00,CLR,SKC,0.00,WeatherDisplay:10.37,2013-06-18 14:53:00,
2013-06-18 09:58:00,74.8,59.0,29.98,NE,36,11.7,11.7,58,0.00,CLR,SKC,0.00,WeatherDisplay:10.37,2013-06-18 14:58:00,
2013-06-18 10:03:00,74.1,58.4,29.98,East,84,11.7,11.7,58,0.00,CLR,SKC,0.00,WeatherDisplay:10.37,2013-06-18 15:03:00,
2013-06-18 10:08:00,73.6,59.3,29.98,NE,39,8.1,8.1,61,0.00,CLR,SKC,0.00,WeatherDisplay:10.37,2013-06-18 15:08:00,
2013-06-18 10:13:00,73.6,58.9,29.98,NE,46,10.6,10.6,60,0.00,CLR,SKC,0.00,WeatherDisplay:10.37,2013-06-18 15:13:00,
2013-06-18 10:18:00,74.1,58.9,29.97,ENE,74,11.7,11.7,59,0.00,CLR,SKC,0.00,WeatherDisplay:10.37,2013-06-18 15:18:00,
2013-06-18 10:23:00,75.0,60.2,29.97,NNE,12,8.5,8.5,60,0.00,CLR,SKC,0.00,WeatherDisplay:10.37,2013-06-18 15:23:00,
2013-06-18 10:28:00,75.5,59.7,29.97,ENE,65,8.5,8.5,58,0.00,CLR,SKC,0.00,WeatherDisplay:10.37,2013-06-18 15:28:00,
2013-06-18 10:33:00,75.6,59.3,29.97,NE,36,9.5,9.5,57,0.00,CLR,SKC,0.00,WeatherDisplay:10.37,2013-06-18 15:33:00,
2013-06-18 10:38:00,76.0,60.2,29.97,ENE,63,11.7,11.7,58,0.00,CLR,SKC,0.00,WeatherDisplay:10.37,2013-06-18 15:38:00,
2013-06-18 10:43:00,76.4,59.5,29.97,NNE,32,9.5,9.5,56,0.00,CLR,SKC,0.00,WeatherDisplay:10.37,2013-06-18 15:43:00,
2013-06-18 10:48:00,76.1,58.2,29.97,NE,55,13.8,13.8,54,0.00,CLR,SKC,0.00,WeatherDisplay:10.37,2013-06-18 15:48:00,
2013-06-18 10:53:00,75.5,58.2,29.97,NE,44,9.5,9.5,55,0.00,CLR,SKC,0.00,WeatherDisplay:10.37,2013-06-18 15:53:00,
2013-06-18 10:58:00,75.1,57.3,29.97,ENE,65,7.4,7.4,54,0.00,CLR,SKC,0.00,WeatherDisplay:10.37,2013-06-18 15:58:00,
2013-06-18 11:03:00,75.0,56.7,29.97,ENE,78,6.9,6.9,53,0.00,CLR,SKC,0.00,WeatherDisplay:10.37,2013-06-18 16:03:00,
2013-06-18 11:08:00,74.9,57.6,29.97,ENE,71,4.2,4.2,55,0.00,CLR,SKC,0.00,WeatherDisplay:10.37,2013-06-18 16:08:00,
2013-06-18 11:13:00,74.9,56.1,29.98,East,85,4.6,4.6,52,0.00,CLR,SKC,0.00,WeatherDisplay:10.37,2013-06-18 16:13:00,
2013-06-18 11:18:00,75.0,57.2,29.99,SE,130,0.0,0.0,54,0.00,CLR,SKC,0.00,WeatherDisplay:10.37,2013-06-18 16:18:00,
2013-06-18 11:23:00,74.8,56.5,29.99,East,81,0.0,0.0,53,0.00,CLR,SKC,0.00,WeatherDisplay:10.37,2013-06-18 16:23:00,
2013-06-18 11:28:00,74.8,57.0,29.99,East,80,0.0,0.0,54,0.00,CLR,SKC,0.00,WeatherDisplay:10.37,2013-06-18 16:28:00,
2013-06-18 11:33:00,74.7,58.0,29.98,East,84,2.3,2.3,56,0.00,CLR,SKC,0.00,WeatherDisplay:10.37,2013-06-18 16:33:00,
2013-06-18 11:38:00,74.9,57.6,29.98,East,96,4.2,4.2,55,0.00,CLR,SKC,0.00,WeatherDisplay:10.37,2013-06-18 16:38:00,
2013-06-18 11:43:00,75.1,57.8,29.98,ENE,77,4.6,4.6,55,0.00,CLR,SKC,0.00,WeatherDisplay:10.37,2013-06-18 16:43:00,
2013-06-18 11:48:00,75.3,58.5,29.98,East,91,4.6,4.6,56,0.00,CLR,SKC,0.00,WeatherDisplay:10.37,2013-06-18 16:48:00,
2013-06-18 11:53:00,75.8,58.0,29.98,NE,49,6.4,6.4,54,0.00,CLR,SKC,0.00,WeatherDisplay:10.37,2013-06-18 16:53:00,
2013-06-18 11:58:00,76.7,60.8,29.98,ENE,72,6.9,6.9,58,0.00,CLR,SKC,0.00,WeatherDisplay:10.37,2013-06-18 16:58:00,
2013-06-18 12:03:00,77.1,60.7,29.98,ENE,69,8.5,8.5,57,0.00,CLR,SKC,0.00,WeatherDisplay:10.37,2013-06-18 17:03:00,
2013-06-18 12:08:00,77.6,58.6,29.98,NE,55,7.4,7.4,52,0.00,CLR,SKC,0.00,WeatherDisplay:10.37,2013-06-18 17:08:00,
2013-06-18 12:13:00,77.2,57.1,29.98,ENE,66,6.9,6.9,50,0.00,CLR,SKC,0.00,WeatherDisplay:10.37,2013-06-18 17:13:00,
2013-06-18 12:18:00,77.2,56.6,29.97,East,83,6.9,6.9,49,0.00,CLR,SKC,0.00,WeatherDisplay:10.37,2013-06-18 17:18:00,
2013-06-18 12:23:00,77.0,56.9,29.97,NE,35,6.9,6.9,50,0.00,CLR,SKC,0.00,WeatherDisplay:10.37,2013-06-18 17:23:00,
2013-06-18 12:28:00,76.8,55.6,29.97,ENE,68,5.8,5.8,48,0.00,CLR,SKC,0.00,WeatherDisplay:10.37,2013-06-18 17:28:00,
2013-06-18 12:34:00,76.8,56.8,29.97,NE,56,6.4,6.4,50,0.00,CLR,SKC,0.00,WeatherDisplay:10.37,2013-06-18 17:34:00,
2013-06-18 12:39:00,77.4,57.9,29.97,ENE,67,7.4,7.4,51,0.00,CLR,SKC,0.00,WeatherDisplay:10.37,2013-06-18 17:39:00,
2013-06-18 12:44:00,77.7,56.4,29.97,ESE,103,8.5,8.5,48,0.00,CLR,SKC,0.00,WeatherDisplay:10.37,2013-06-18 17:44:00,
2013-06-18 12:49:00,77.7,56.4,29.97,East,86,6.4,6.4,48,0.00,CLR,SKC,0.00,WeatherDisplay:10.37,2013-06-18 17:49:00,
2013-06-18 12:54:00,78.5,56.6,29.97,East,82,6.9,6.9,47,0.00,CLR,SKC,0.00,WeatherDisplay:10.37,2013-06-18 17:54:00,
2013-06-18 12:59:00,78.9,57.0,29.97,East,91,7.4,7.4,47,0.00,CLR,SKC,0.00,WeatherDisplay:10.37,2013-06-18 17:59:00,
2013-06-18 13:04:00,79.3,57.3,29.97,ESE,120,3.5,3.5,47,0.00,CLR,SKC,0.00,WeatherDisplay:10.37,2013-06-18 18:04:00,
2013-06-18 13:09:00,79.7,57.1,29.97,NE,56,8.5,8.5,46,0.00,CLR,SKC,0.00,WeatherDisplay:10.37,2013-06-18 18:09:00,
2013-06-18 13:14:00,79.9,60.2,29.97,NE,39,6.9,6.9,51,0.00,CLR,SKC,0.00,WeatherDisplay:10.37,2013-06-18 18:14:00,
2013-06-18 13:19:00,80.3,57.0,29.97,SSE,161,8.5,8.5,45,0.00,CLR,SKC,0.00,WeatherDisplay:10.37,2013-06-18 18:19:00,
2013-06-18 13:24:00,79.6,61.0,29.97,South,188,5.8,5.8,53,0.00,CLR,SKC,0.00,WeatherDisplay:10.37,2013-06-18 18:24:00,
2013-06-18 13:29:00,78.7,60.1,29.96,SE,144,3.5,3.5,53,0.00,CLR,SKC,0.00,WeatherDisplay:10.37,2013-06-18 18:29:00,
2013-06-18 13:34:00,78.8,59.7,29.95,SE,134,6.9,6.9,52,0.00,CLR,SKC,0.00,WeatherDisplay:10.37,2013-06-18 18:34:00,
2013-06-18 13:39:00,78.5,61.0,29.95,NW,313,2.3,2.3,55,0.00,CLR,SKC,0.00,WeatherDisplay:10.37,2013-06-18 18:39:00,
2013-06-18 13:44:00,79.2,56.6,29.96,ENE,63,6.4,6.4,46,0.00,CLR,SKC,0.00,WeatherDisplay:10.37,2013-06-18 18:44:00,
2013-06-18 13:49:00,79.5,56.3,29.96,ESE,119,5.8,5.8,45,0.00,CLR,SKC,0.00,WeatherDisplay:10.37,2013-06-18 18:49:00,
2013-06-18 13:54:00,79.9,57.3,29.95,SW,217,0.0,0.0,46,0.00,CLR,SKC,0.00,WeatherDisplay:10.37,2013-06-18 18:54:00,
2013-06-18 13:59:00,80.7,59.2,29.95,East,86,3.5,3.5,48,0.00,CLR,SKC,0.00,WeatherDisplay:10.37,2013-06-18 18:59:00,
2013-06-18 14:04:00,80.6,57.3,29.95,ESE,122,4.6,4.6,45,0.00,CLR,SKC,0.00,WeatherDisplay:10.37,2013-06-18 19:04:00,
2013-06-18 14:09:00,80.9,56.9,29.95,NW,324,5.8,5.8,44,0.00,CLR,SKC,0.00,WeatherDisplay:10.37,2013-06-18 19:09:00,
2013-06-18 14:14:00,80.7,57.4,29.95,SSW,196,4.6,4.6,45,0.00,CLR,SKC,0.00,WeatherDisplay:10.37,2013-06-18 19:14:00,
2013-06-18 14:19:00,80.9,56.9,29.95,ESE,117,6.9,6.9,44,0.00,CLR,SKC,0.00,WeatherDisplay:10.37,2013-06-18 19:19:00,
2013-06-18 14:24:00,80.5,58.4,29.95,ENE,59,4.6,4.6,47,0.00,CLR,SKC,0.00,WeatherDisplay:10.37,2013-06-18 19:24:00,
2013-06-18 14:29:00,80.1,58.0,29.95,SSE,151,0.0,0.0,47,0.00,CLR,SKC,0.00,WeatherDisplay:10.37,2013-06-18 19:29:00,
2013-06-18 14:34:00,80.8,58.1,29.95,SSE,166,0.0,0.0,46,0.00,CLR,SKC,0.00,WeatherDisplay:10.37,2013-06-18 19:34:00,
2013-06-18 14:39:00,81.0,58.3,29.95,SW,214,5.8,5.8,46,0.00,CLR,SKC,0.00,WeatherDisplay:10.37,2013-06-18 19:39:00,
2013-06-18 14:44:00,81.4,58.0,29.95,SSE,153,0.0,0.0,45,0.00,CLR,SKC,0.00,WeatherDisplay:10.37,2013-06-18 19:44:00,
2013-06-18 14:49:00,81.6,58.8,29.95,ESE,104,3.5,3.5,46,0.00,CLR,SKC,0.00,WeatherDisplay:10.37,2013-06-18 19:49:00,
2013-06-18 14:54:00,81.6,58.2,29.95,SE,132,6.9,6.9,45,0.00,CLR,SKC,0.00,WeatherDisplay:10.37,2013-06-18 19:54:00,
2013-06-18 14:59:00,81.6,58.2,29.94,East,96,5.8,5.8,45,0.00,CLR,SKC,0.00,WeatherDisplay:10.37,2013-06-18 19:59:00,
2013-06-18 15:04:00,81.5,58.7,29.94,East,86,5.8,5.8,46,0.00,CLR,SKC,0.00,WeatherDisplay:10.37,2013-06-18 20:04:00,
2013-06-18 15:09:00,81.9,57.8,29.94,NE,49,4.6,4.6,44,0.00,CLR,SKC,0.00,WeatherDisplay:10.37,2013-06-18 20:09:00,
2013-06-18 15:14:00,81.7,56.4,29.94,South,191,2.3,0.0,42,0.00,CLR,SKC,0.00,WeatherDisplay:10.37,2013-06-18 20:14:00,
2013-06-18 15:19:00,82.4,57.0,29.94,NW,324,0.0,0.0,42,0.00,CLR,SKC,0.00,WeatherDisplay:10.37,2013-06-18 20:19:00,
2013-06-18 15:24:00,83.4,56.5,29.94,South,176,4.6,4.6,40,0.00,CLR,SKC,0.00,WeatherDisplay:10.37,2013-06-18 20:24:00,
2013-06-18 15:29:00,83.6,58.7,29.94,WSW,242,3.5,3.5,43,0.00,CLR,SKC,0.00,WeatherDisplay:10.37,2013-06-18 20:29:00,
2013-06-18 15:34:00,84.1,56.5,29.94,SE,128,1.2,0.0,39,0.00,CLR,SKC,0.00,WeatherDisplay:10.37,2013-06-18 20:34:00,
2013-06-18 15:39:00,84.1,57.9,29.93,NNE,30,4.6,4.6,41,0.00,CLR,SKC,0.00,WeatherDisplay:10.37,2013-06-18 20:39:00,
2013-06-18 15:44:00,83.6,56.0,29.93,NE,47,4.2,4.2,39,0.00,CLR,SKC,0.00,WeatherDisplay:10.37,2013-06-18 20:44:00,
2013-06-18 15:49:00,82.8,56.0,29.93,East,89,6.9,6.9,40,0.00,CLR,SKC,0.00,WeatherDisplay:10.37,2013-06-18 20:49:00,
2013-06-18 15:54:00,82.5,57.7,29.93,SE,125,6.4,6.4,43,0.00,CLR,SKC,0.00,WeatherDisplay:10.37,2013-06-18 20:54:00,
2013-06-18 15:59:00,82.4,59.5,29.92,East,85,5.8,5.8,46,0.00,CLR,SKC,0.00,WeatherDisplay:10.37,2013-06-18 20:59:00,
2013-06-18 16:04:00,82.6,57.8,29.92,East,79,5.3,5.3,43,0.00,CLR,SKC,0.00,WeatherDisplay:10.37,2013-06-18 21:04:00,
2013-06-18 16:09:00,82.7,57.9,29.92,WNW,299,0.0,0.0,43,0.00,CLR,SKC,0.00,WeatherDisplay:10.37,2013-06-18 21:09:00,
2013-06-18 16:14:00,82.7,61.0,29.92,SE,136,3.5,3.5,48,0.00,CLR,SKC,0.00,WeatherDisplay:10.37,2013-06-18 21:14:00,
2013-06-18 16:19:00,83.1,58.9,29.92,WNW,294,3.5,3.5,44,0.00,CLR,SKC,0.00,WeatherDisplay:10.37,2013-06-18 21:19:00,
2013-06-18 16:24:00,83.4,59.2,29.91,NE,51,0.0,0.0,44,0.00,CLR,SKC,0.00,WeatherDisplay:10.37,2013-06-18 21:24:00,
2013-06-18 16:29:00,83.7,60.1,29.91,North,357,5.8,5.8,45,0.00,CLR,SKC,0.00,WeatherDisplay:10.37,2013-06-18 21:29:00,
2013-06-18 16:34:00,83.5,57.3,29.91,NE,49,4.6,4.6,41,0.00,CLR,SKC,0.00,WeatherDisplay:10.37,2013-06-18 21:34:00,
2013-06-18 16:39:00,82.9,56.1,29.91,ENE,74,4.6,4.6,40,0.00,CLR,SKC,0.00,WeatherDisplay:10.37,2013-06-18 21:39:00,
2013-06-18 16:44:00,83.3,57.1,29.91,WNW,285,0.0,0.0,41,0.00,CLR,SKC,0.00,WeatherDisplay:10.37,2013-06-18 21:44:00,
2013-06-18 16:49:00,83.7,56.8,29.90,NW,308,3.2,3.2,40,0.00,CLR,SKC,0.00,WeatherDisplay:10.37,2013-06-18 21:49:00,
2013-06-18 16:54:00,83.7,56.8,29.90,NW,310,3.2,3.2,40,0.00,CLR,SKC,0.00,WeatherDisplay:10.37,2013-06-18 21:54:00,
2013-06-18 16:59:00,83.5,56.6,29.90,ENE,68,2.3,2.3,40,0.00,CLR,SKC,0.00,WeatherDisplay:10.37,2013-06-18 21:59:00,
2013-06-18 17:04:00,83.4,56.5,29.90,ENE,66,6.9,6.9,40,0.00,CLR,SKC,0.00,WeatherDisplay:10.37,2013-06-18 22:04:00,
2013-06-18 17:09:00,83.4,56.5,29.90,ESE,110,4.6,4.6,40,0.00,CLR,SKC,0.00,WeatherDisplay:10.37,2013-06-18 22:09:00,
2013-06-18 17:14:00,83.2,58.4,29.90,ENE,63,6.4,6.4,43,0.00,CLR,SKC,0.00,WeatherDisplay:10.37,2013-06-18 22:14:00,
2013-06-18 17:19:00,83.1,58.3,29.90,ESE,110,5.8,5.8,43,0.00,CLR,SKC,0.00,WeatherDisplay:10.37,2013-06-18 22:19:00,
2013-06-18 17:24:00,82.7,57.3,29.90,SE,134,4.6,4.6,42,0.00,CLR,SKC,0.00,WeatherDisplay:10.37,2013-06-18 22:24:00,
2013-06-18 17:29:00,82.4,55.7,29.90,NE,51,6.4,6.4,40,0.00,CLR,SKC,0.00,WeatherDisplay:10.37,2013-06-18 22:29:00,
2013-06-18 17:34:00,82.6,56.5,29.90,ESE,115,6.9,6.9,41,0.00,CLR,SKC,0.00,WeatherDisplay:10.37,2013-06-18 22:34:00,
2013-06-18 17:39:00,83.0,58.2,29.90,ESE,110,0.0,0.0,43,0.00,CLR,SKC,0.00,WeatherDisplay:10.37,2013-06-18 22:39:00,
2013-06-18 17:44:00,83.2,57.1,29.90,East,92,3.5,3.5,41,0.00,CLR,SKC,0.00,WeatherDisplay:10.37,2013-06-18 22:44:00,
2013-06-18 17:49:00,83.2,55.7,29.89,NNE,25,0.0,0.0,39,0.00,CLR,SKC,0.00,WeatherDisplay:10.37,2013-06-18 22:49:00,
2013-06-18 17:54:00,83.9,59.0,29.89,East,101,3.5,3.5,43,0.00,CLR,SKC,0.00,WeatherDisplay:10.37,2013-06-18 22:54:00,
2013-06-18 17:59:00,83.5,57.3,29.89,ESE,120,5.8,5.8,41,0.00,CLR,SKC,0.00,WeatherDisplay:10.37,2013-06-18 22:59:00,
2013-06-18 18:04:00,83.2,56.4,29.89,ESE,107,4.6,4.6,40,0.00,CLR,SKC,0.00,WeatherDisplay:10.37,2013-06-18 23:04:00,
2013-06-18 18:09:00,83.6,56.7,29.89,West,269,2.3,2.3,40,0.00,CLR,SKC,0.00,WeatherDisplay:10.37,2013-06-18 23:09:00,
2013-06-18 18:14:00,84.3,56.6,29.89,NW,311,0.0,0.0,39,0.00,CLR,SKC,0.00,WeatherDisplay:10.37,2013-06-18 23:14:00,
2013-06-18 18:19:00,84.2,57.2,29.89,ESE,112,3.0,6.0,40,0.00,CLR,SKC,0.00,WeatherDisplay:10.37,2013-06-18 23:19:00,
2013-06-18 18:24:00,83.6,57.4,29.89,East,101,5.8,5.8,41,0.00,CLR,SKC,0.00,WeatherDisplay:10.37,2013-06-18 23:24:00,
2013-06-18 18:29:00,83.5,58.0,29.89,SSW,195,3.2,3.2,42,0.00,CLR,SKC,0.00,WeatherDisplay:10.37,2013-06-18 23:29:00,
2013-06-18 18:35:00,83.8,61.4,29.89,ENE,78,1.1,1.1,47,0.00,CLR,SKC,0.00,WeatherDisplay:10.37,2013-06-18 23:35:00,
2013-06-18 18:40:00,83.2,57.1,29.89,East,87,5.0,7.0,41,0.00,CLR,SKC,0.00,WeatherDisplay:10.37,2013-06-18 23:40:00,
2013-06-18 18:44:00,83.0,58.2,29.89,ESE,103,6.9,6.9,43,0.00,CLR,SKC,0.00,WeatherDisplay:10.37,2013-06-18 23:44:00,
2013-06-18 18:50:00,82.8,56.7,29.89,ESE,110,3.5,3.5,41,0.00,CLR,SKC,0.00,WeatherDisplay:10.37,2013-06-18 23:50:00,
2013-06-18 18:55:00,82.8,57.4,29.89,ESE,121,4.6,4.6,42,0.00,CLR,SKC,0.00,WeatherDisplay:10.37,2013-06-18 23:55:00,
2013-06-18 19:00:00,82.9,58.7,29.89,East,100,7.4,7.4,44,0.00,CLR,SKC,0.00,WeatherDisplay:10.37,2013-06-19 00:00:00,
2013-06-18 19:05:00,82.7,56.6,29.89,East,99,5.8,5.8,41,0.00,CLR,SKC,0.00,WeatherDisplay:10.37,2013-06-19 00:05:00,
2013-06-18 19:10:00,82.8,58.7,29.89,ESE,103,0.0,0.0,44,0.00,CLR,SKC,0.00,WeatherDisplay:10.37,2013-06-19 00:10:00,
2013-06-18 19:15:00,83.0,58.8,29.89,ESE,122,4.6,4.6,44,0.00,CLR,SKC,0.00,WeatherDisplay:10.37,2013-06-19 00:15:00,
2013-06-18 19:20:00,82.8,57.4,29.89,East,95,3.5,3.5,42,0.00,CLR,SKC,0.00,WeatherDisplay:10.37,2013-06-19 00:20:00,
2013-06-18 19:25:00,82.7,59.2,29.89,ESE,107,5.8,5.8,45,0.00,CLR,SKC,0.00,WeatherDisplay:10.37,2013-06-19 00:25:00,
2013-06-18 19:30:00,82.5,58.4,29.89,East,98,5.8,5.8,44,0.00,CLR,SKC,0.00,WeatherDisplay:10.37,2013-06-19 00:30:00,
2013-06-18 19:35:00,82.5,59.0,29.89,SE,124,4.6,4.6,45,0.00,CLR,SKC,0.00,WeatherDisplay:10.37,2013-06-19 00:35:00,
2013-06-18 19:40:00,82.3,58.8,29.89,East,101,3.5,3.5,45,0.00,CLR,SKC,0.00,WeatherDisplay:10.37,2013-06-19 00:40:00,
2013-06-18 19:45:00,82.2,58.7,29.89,SE,129,5.3,5.3,45,0.00,CLR,SKC,0.00,WeatherDisplay:10.37,2013-06-19 00:45:00,
2013-06-18 19:50:00,82.1,58.7,29.89,SE,127,6.9,6.9,45,0.00,CLR,SKC,0.00,WeatherDisplay:10.37,2013-06-19 00:50:00,
2013-06-18 19:55:00,81.7,59.5,29.89,SSE,165,3.5,3.5,47,0.00,CLR,SKC,0.00,WeatherDisplay:10.37,2013-06-19 00:55:00,
2013-06-18 20:00:00,81.6,60.0,29.89,SSE,165,5.8,5.8,48,0.00,CLR,SKC,0.00,WeatherDisplay:10.37,2013-06-19 01:00:00,
2013-06-18 20:05:00,81.3,59.7,29.89,SE,141,6.9,6.9,48,0.00,CLR,SKC,0.00,WeatherDisplay:10.37,2013-06-19 01:05:00,
2013-06-18 20:10:00,81.1,59.6,29.90,SSE,149,4.6,4.6,48,0.00,CLR,SKC,0.00,WeatherDisplay:10.37,2013-06-19 01:10:00,
2013-06-18 20:15:00,80.8,59.3,29.89,South,175,4.6,4.6,48,0.00,CLR,SKC,0.00,WeatherDisplay:10.37,2013-06-19 01:15:00,
2013-06-18 20:20:00,80.5,59.6,29.89,SE,134,3.2,3.2,49,0.00,CLR,SKC,0.00,WeatherDisplay:10.37,2013-06-19 01:20:00,
2013-06-18 20:25:00,80.2,59.9,29.89,ESE,122,3.5,3.5,50,0.00,CLR,SKC,0.00,WeatherDisplay:10.37,2013-06-19 01:25:00,
2013-06-18 20:30:00,79.9,59.6,29.89,SE,141,3.5,3.5,50,0.00,CLR,SKC,0.00,WeatherDisplay:10.37,2013-06-19 01:30:00,
2013-06-18 20:35:00,79.5,59.8,29.89,SE,139,4.2,4.2,51,0.00,CLR,SKC,0.00,WeatherDisplay:10.37,2013-06-19 01:35:00,
2013-06-18 20:40:00,79.1,60.5,29.88,ESE,120,0.0,0.0,53,0.00,CLR,SKC,0.00,WeatherDisplay:10.37,2013-06-19 01:40:00,
2013-06-18 20:45:00,78.6,60.6,29.89,SE,128,3.5,3.5,54,0.00,CLR,SKC,0.00,WeatherDisplay:10.37,2013-06-19 01:45:00,
2013-06-18 20:50:00,78.0,60.0,29.89,ESE,111,3.5,3.5,54,0.00,CLR,SKC,0.00,WeatherDisplay:10.37,2013-06-19 01:50:00,
2013-06-18 20:55:00,77.4,60.0,29.89,SE,129,2.3,2.3,55,0.00,CLR,SKC,0.00,WeatherDisplay:10.37,2013-06-19 01:55:00,
2013-06-18 21:00:00,77.0,60.1,29.89,ESE,123,0.0,0.0,56,0.00,CLR,SKC,0.00,WeatherDisplay:10.37,2013-06-19 02:00:00,
2013-06-18 21:05:00,76.5,59.6,29.89,ESE,121,0.0,0.0,56,0.00,CLR,SKC,0.00,WeatherDisplay:10.37,2013-06-19 02:05:00,
2013-06-18 21:10:00,76.2,59.9,29.89,ESE,120,2.3,2.3,57,0.00,CLR,SKC,0.00,WeatherDisplay:10.37,2013-06-19 02:10:00,
2013-06-18 21:15:00,75.7,59.4,29.89,SE,126,2.3,2.3,57,0.00,CLR,SKC,0.00,WeatherDisplay:10.37,2013-06-19 02:15:00,
2013-06-18 21:20:00,75.5,59.2,29.89,SE,131,0.0,0.0,57,0.00,CLR,SKC,0.00,WeatherDisplay:10.37,2013-06-19 02:20:00,
2013-06-18 21:25:00,75.2,58.9,29.89,SSE,158,0.0,0.0,57,0.00,CLR,SKC,0.00,WeatherDisplay:10.37,2013-06-19 02:25:00,
2013-06-18 21:30:00,74.9,59.1,29.90,SSE,153,0.0,0.0,58,0.00,CLR,SKC,0.00,WeatherDisplay:10.37,2013-06-19 02:30:00,
2013-06-18 21:35:00,74.6,59.3,29.90,SSE,151,0.0,0.0,59,0.00,CLR,SKC,0.00,WeatherDisplay:10.37,2013-06-19 02:35:00,
2013-06-18 21:40:00,74.2,59.4,29.90,SSE,151,0.0,0.0,60,0.00,CLR,SKC,0.00,WeatherDisplay:10.37,2013-06-19 02:40:00,
2013-06-18 21:45:00,73.9,59.6,29.90,SSE,151,0.0,0.0,61,0.00,CLR,SKC,0.00,WeatherDisplay:10.37,2013-06-19 02:45:00,
2013-06-18 21:50:00,73.7,59.4,29.90,SSE,151,0.0,0.0,61,0.00,CLR,SKC,0.00,WeatherDisplay:10.37,2013-06-19 02:50:00,
2013-06-18 21:55:00,73.4,59.6,29.90,SSE,151,0.0,0.0,62,0.00,CLR,SKC,0.00,WeatherDisplay:10.37,2013-06-19 02:55:00,
2013-06-18 22:00:00,73.0,60.1,29.91,SSE,151,0.0,0.0,64,0.00,CLR,SKC,0.00,WeatherDisplay:10.37,2013-06-19 03:00:00,
2013-06-18 22:05:00,72.6,60.2,29.91,SSE,153,0.0,0.0,65,0.00,CLR,SKC,0.00,WeatherDisplay:10.37,2013-06-19 03:05:00,
2013-06-18 22:10:00,72.4,60.4,29.91,SSE,154,0.0,0.0,66,0.00,CLR,SKC,0.00,WeatherDisplay:10.37,2013-06-19 03:10:00,
2013-06-18 22:15:00,72.1,60.5,29.91,SSE,154,0.0,0.0,67,0.00,CLR,SKC,0.00,WeatherDisplay:10.37,2013-06-19 03:15:00,
2013-06-18 22:20:00,71.8,60.2,29.91,SSE,154,0.0,0.0,67,0.00,CLR,SKC,0.00,WeatherDisplay:10.37,2013-06-19 03:20:00,
2013-06-18 22:25:00,71.5,60.4,29.91,SSE,154,0.0,0.0,68,0.00,CLR,SKC,0.00,WeatherDisplay:10.37,2013-06-19 03:25:00,
2013-06-18 22:30:00,71.1,60.4,29.91,SSE,154,0.0,0.0,69,0.00,CLR,SKC,0.00,WeatherDisplay:10.37,2013-06-19 03:30:00,
2013-06-18 22:35:00,70.7,60.4,29.91,SSE,154,0.0,0.0,70,0.00,CLR,SKC,0.00,WeatherDisplay:10.37,2013-06-19 03:35:00,
2013-06-18 22:40:00,70.8,60.5,29.91,SSE,153,0.0,0.0,70,0.00,CLR,SKC,0.00,WeatherDisplay:10.37,2013-06-19 03:40:00,
2013-06-18 22:45:00,71.0,60.7,29.91,SE,130,0.0,0.0,70,0.00,CLR,SKC,0.00,WeatherDisplay:10.37,2013-06-19 03:45:00,
2013-06-18 22:50:00,71.0,60.7,29.91,SE,130,0.0,0.0,70,0.00,CLR,SKC,0.00,WeatherDisplay:10.37,2013-06-19 03:50:00,
2013-06-18 22:55:00,70.8,60.9,29.91,SE,130,0.0,0.0,71,0.00,CLR,SKC,0.00,WeatherDisplay:10.37,2013-06-19 03:55:00,
2013-06-18 23:00:00,70.7,61.2,29.91,SE,130,0.0,0.0,72,0.00,CLR,SKC,0.00,WeatherDisplay:10.37,2013-06-19 04:00:00,
2013-06-18 23:01:00,70.7,61.2,29.91,SE,130,0.0,0.0,72,0.00,CLR,SKC,0.00,WeatherDisplay:10.37,2013-06-19 04:01:00,
2013-06-18 23:06:00,70.6,61.1,29.91,SE,130,0.0,0.0,72,0.00,CLR,SKC,0.00,WeatherDisplay:10.37,2013-06-19 04:06:00,
2013-06-18 23:11:00,70.5,61.4,29.91,SE,136,0.0,0.0,73,0.00,CLR,SKC,0.00,WeatherDisplay:10.37,2013-06-19 04:11:00,
2013-06-18 23:17:00,70.5,61.4,29.90,SE,134,0.0,0.0,73,0.00,CLR,SKC,0.00,WeatherDisplay:10.37,2013-06-19 04:17:00,
2013-06-18 23:22:00,70.4,61.7,29.91,SE,134,1.2,1.2,74,0.00,CLR,SKC,0.00,WeatherDisplay:10.37,2013-06-19 04:22:00,
2013-06-18 23:27:00,70.3,61.6,29.91,SE,134,0.0,0.0,74,0.00,CLR,SKC,0.00,WeatherDisplay:10.37,2013-06-19 04:27:00,
2013-06-18 23:32:00,70.1,61.4,29.90,SE,134,0.0,0.0,74,0.00,CLR,SKC,0.00,WeatherDisplay:10.37,2013-06-19 04:32:00,
2013-06-18 23:37:00,69.9,61.6,29.91,SE,134,0.0,0.0,75,0.00,CLR,SKC,0.00,WeatherDisplay:10.37,2013-06-19 04:37:00,
2013-06-18 23:42:00,69.6,61.7,29.91,SE,139,0.0,0.0,76,0.00,CLR,SKC,0.00,WeatherDisplay:10.37,2013-06-19 04:42:00,
2013-06-18 23:47:00,69.4,61.5,29.91,SE,140,0.0,0.0,76,0.00,CLR,SKC,0.00,WeatherDisplay:10.37,2013-06-19 04:47:00,
2013-06-18 23:52:00,69.4,61.5,29.91,SE,139,0.0,0.0,76,0.00,CLR,SKC,0.00,WeatherDisplay:10.37,2013-06-19 04:52:00,
2013-06-18 23:57:00,69.2,61.3,29.91,SE,139,0.0,0.0,76,0.00,CLR,SKC,0.00,WeatherDisplay:10.37,2013-06-19 04:57:00,